Time,TemperatureF,DewpointF,PressureIn,WindDirection,WindDirectionDegrees,WindSpeedMPH,WindSpeedGustMPH,Humidity,HourlyPrecipIn,Conditions,Clouds,dailyrainin,SoftwareType,DateUTC
2013-09-25 00:00:00,53.1,53.1,29.94,North,0,0.0,0.0,100,0.00,CLR,FEW,0.00,WeatherDisplay:10.37,2013-09-25 04:00:00,
2013-09-25 00:05:00,52.7,52.4,29.94,North,0,0.0,0.0,99,0.00,CLR,FEW,0.00,WeatherDisplay:10.37,2013-09-25 04:05:00,
2013-09-25 00:10:00,52.7,52.4,29.94,North,0,0.0,0.0,99,0.00,CLR,FEW,0.00,WeatherDisplay:10.37,2013-09-25 04:10:00,
2013-09-25 00:15:00,52.9,52.9,29.94,North,0,0.0,0.0,100,0.00,CLR,FEW,0.00,WeatherDisplay:10.37,2013-09-25 04:15:00,
2013-09-25 00:20:00,52.9,52.9,29.94,North,0,0.0,0.0,100,0.00,CLR,FEW,0.00,WeatherDisplay:10.37,2013-09-25 04:20:00,
2013-09-25 00:25:00,52.9,52.9,29.94,North,0,0.0,0.0,100,0.00,CLR,FEW,0.00,WeatherDisplay:10.37,2013-09-25 04:25:00,
2013-09-25 00:30:00,52.5,52.5,29.94,North,0,0.0,0.0,100,0.00,CLR,FEW,0.00,WeatherDisplay:10.37,2013-09-25 04:30:00,
2013-09-25 00:34:00,52.3,52.3,29.94,North,0,0.0,0.0,100,0.00,CLR,FEW,0.00,WeatherDisplay:10.37,2013-09-25 04:34:00,
2013-09-25 00:40:00,52.2,52.2,29.94,North,0,0.0,0.0,100,0.00,CLR,FEW,0.00,WeatherDisplay:10.37,2013-09-25 04:40:00,
2013-09-25 00:50:00,52.2,52.2,29.94,North,0,0.0,0.0,100,0.00,CLR,FEW,0.00,WeatherDisplay:10.37,2013-09-25 04:50:00,
2013-09-25 00:55:00,52.2,52.2,29.94,North,0,0.0,0.0,100,0.00,CLR,FEW,0.00,WeatherDisplay:10.37,2013-09-25 04:55:00,
2013-09-25 01:05:00,52.0,52.0,29.94,North,0,0.0,0.0,100,0.00,CLR,FEW,0.00,WeatherDisplay:10.37,2013-09-25 05:05:00,
2013-09-25 01:10:00,52.0,52.0,29.94,North,0,0.0,0.0,100,0.00,CLR,FEW,0.00,WeatherDisplay:10.37,2013-09-25 05:10:00,
2013-09-25 01:20:00,51.6,51.6,29.94,North,0,0.0,0.0,100,0.00,CLR,FEW,0.00,WeatherDisplay:10.37,2013-09-25 05:20:00,
2013-09-25 01:25:00,51.6,51.6,29.94,North,0,0.0,0.0,100,0.00,CLR,FEW,0.00,WeatherDisplay:10.37,2013-09-25 05:25:00,
2013-09-25 01:30:00,51.4,51.4,29.94,North,0,0.0,0.0,100,0.00,CLR,FEW,0.00,WeatherDisplay:10.37,2013-09-25 05:30:00,
2013-09-25 01:40:00,51.4,51.4,29.94,North,0,0.0,0.0,100,0.00,CLR,FEW,0.00,WeatherDisplay:10.37,2013-09-25 05:40:00,
2013-09-25 01:50:00,51.1,51.1,29.94,North,0,0.0,0.0,100,0.00,CLR,FEW,0.00,WeatherDisplay:10.37,2013-09-25 05:50:00,
2013-09-25 02:00:00,50.9,50.9,29.94,North,0,0.0,0.0,100,0.00,CLR,FEW,0.00,WeatherDisplay:10.37,2013-09-25 06:00:00,
2013-09-25 02:05:00,51.1,51.1,29.94,North,0,0.0,0.0,100,0.00,CLR,FEW,0.00,WeatherDisplay:10.37,2013-09-25 06:05:00,
2013-09-25 02:10:00,50.9,50.9,29.94,North,0,0.0,0.0,100,0.00,CLR,FEW,0.00,WeatherDisplay:10.37,2013-09-25 06:10:00,
2013-09-25 02:20:00,50.9,50.9,29.91,North,0,0.0,0.0,100,0.00,CLR,FEW,0.00,WeatherDisplay:10.37,2013-09-25 06:20:00,
2013-09-25 02:30:00,50.9,50.9,29.91,North,0,0.0,0.0,100,0.00,CLR,FEW,0.00,WeatherDisplay:10.37,2013-09-25 06:30:00,
2013-09-25 02:40:00,50.9,50.9,29.91,North,0,0.0,0.0,100,0.00,CLR,FEW,0.00,WeatherDisplay:10.37,2013-09-25 06:40:00,
2013-09-25 02:50:00,50.4,50.4,29.91,North,0,0.0,0.0,100,0.00,CLR,FEW,0.00,WeatherDisplay:10.37,2013-09-25 06:50:00,
2013-09-25 03:00:00,50.5,50.5,29.91,North,0,0.0,0.0,100,0.00,CLR,FEW,0.00,WeatherDisplay:10.37,2013-09-25 07:00:00,
2013-09-25 03:05:00,50.4,50.4,29.91,North,0,0.0,0.0,100,0.00,CLR,FEW,0.00,WeatherDisplay:10.37,2013-09-25 07:05:00,
2013-09-25 03:10:00,50.4,50.4,29.91,North,0,0.0,0.0,100,0.00,CLR,FEW,0.00,WeatherDisplay:10.37,2013-09-25 07:10:00,
2013-09-25 03:20:00,50.0,50.0,29.91,North,0,0.0,0.0,100,0.00,CLR,FEW,0.00,WeatherDisplay:10.37,2013-09-25 07:20:00,
2013-09-25 03:30:00,50.0,50.0,29.91,North,0,0.0,0.0,100,0.00,CLR,FEW,0.00,WeatherDisplay:10.37,2013-09-25 07:30:00,
2013-09-25 03:40:00,49.8,49.8,29.91,North,0,0.0,0.0,100,0.00,CLR,FEW,0.00,WeatherDisplay:10.37,2013-09-25 07:40:00,
2013-09-25 03:50:00,49.6,49.6,29.91,North,0,0.0,0.0,100,0.00,CLR,FEW,0.00,WeatherDisplay:10.37,2013-09-25 07:50:00,
2013-09-25 04:00:00,49.5,49.5,29.91,North,0,0.0,0.0,100,0.00,CLR,FEW,0.00,WeatherDisplay:10.37,2013-09-25 08:00:00,
2013-09-25 04:05:00,49.5,49.5,29.91,North,0,0.0,0.0,100,0.00,CLR,FEW,0.00,WeatherDisplay:10.37,2013-09-25 08:05:00,
2013-09-25 04:10:00,49.5,49.5,29.91,North,0,0.0,0.0,100,0.00,CLR,FEW,0.00,WeatherDisplay:10.37,2013-09-25 08:10:00,
2013-09-25 04:20:00,49.3,49.3,29.91,North,0,0.0,0.0,100,0.00,CLR,FEW,0.00,WeatherDisplay:10.37,2013-09-25 08:20:00,
2013-09-25 04:30:00,48.9,48.9,29.88,North,0,0.0,0.0,100,0.00,CLR,FEW,0.00,WeatherDisplay:10.37,2013-09-25 08:30:00,
2013-09-25 04:40:00,48.2,48.2,29.88,North,0,0.0,0.0,100,0.00,CLR,FEW,0.00,WeatherDisplay:10.37,2013-09-25 08:40:00,
2013-09-25 04:50:00,48.2,48.2,29.88,North,0,0.0,0.0,100,0.00,CLR,FEW,0.00,WeatherDisplay:10.37,2013-09-25 08:50:00,
2013-09-25 05:00:00,48.0,48.0,29.88,North,0,0.0,0.0,100,0.00,CLR,FEW,0.00,WeatherDisplay:10.37,2013-09-25 09:00:00,
2013-09-25 05:05:00,48.0,48.0,29.88,North,0,0.0,0.0,100,0.00,CLR,FEW,0.00,WeatherDisplay:10.37,2013-09-25 09:05:00,
2013-09-25 05:10:00,48.0,48.0,29.88,North,0,0.0,0.0,100,0.00,CLR,FEW,0.00,WeatherDisplay:10.37,2013-09-25 09:10:00,
2013-09-25 05:20:00,47.7,47.7,29.91,North,0,0.0,0.0,100,0.00,CLR,FEW,0.00,WeatherDisplay:10.37,2013-09-25 09:20:00,
2013-09-25 05:30:00,47.5,47.5,29.91,North,0,0.0,0.0,100,0.00,CLR,FEW,0.00,WeatherDisplay:10.37,2013-09-25 09:30:00,
2013-09-25 05:40:00,47.5,47.5,29.88,North,0,0.0,0.0,100,0.00,CLR,FEW,0.00,WeatherDisplay:10.37,2013-09-25 09:40:00,
2013-09-25 05:50:00,47.3,47.3,29.88,North,0,0.0,0.0,100,0.00,CLR,FEW,0.00,WeatherDisplay:10.37,2013-09-25 09:50:00,
2013-09-25 06:00:00,47.3,47.3,29.88,North,0,0.0,0.0,100,0.00,CLR,FEW,0.00,WeatherDisplay:10.37,2013-09-25 10:00:00,
2013-09-25 06:05:00,47.3,47.3,29.88,North,0,0.0,0.0,100,0.00,CLR,FEW,0.00,WeatherDisplay:10.37,2013-09-25 10:05:00,
2013-09-25 06:10:00,47.3,47.3,29.88,North,0,0.0,0.0,100,0.00,CLR,FEW,0.00,WeatherDisplay:10.37,2013-09-25 10:10:00,
2013-09-25 06:20:00,47.3,47.3,29.91,North,0,0.0,0.0,100,0.00,CLR,FEW,0.00,WeatherDisplay:10.37,2013-09-25 10:20:00,
2013-09-25 06:30:00,47.5,47.5,29.91,North,0,0.0,0.0,100,0.00,CLR,FEW,0.00,WeatherDisplay:10.37,2013-09-25 10:30:00,
2013-09-25 06:40:00,47.5,47.5,29.91,North,0,0.0,0.0,100,0.00,CLR,FEW,0.00,WeatherDisplay:10.37,2013-09-25 10:40:00,
2013-09-25 06:50:00,47.8,47.8,29.91,North,0,0.0,0.0,100,0.00,CLR,FEW,0.00,WeatherDisplay:10.37,2013-09-25 10:50:00,
2013-09-25 06:55:00,47.8,47.8,29.91,North,0,0.0,0.0,100,0.00,CLR,FEW,0.00,WeatherDisplay:10.37,2013-09-25 10:55:00,
2013-09-25 07:00:00,47.8,47.8,29.91,North,0,0.0,0.0,100,0.00,CLR,FEW,0.00,WeatherDisplay:10.37,2013-09-25 11:00:00,
2013-09-25 07:05:00,47.8,47.8,29.88,North,0,0.0,0.0,100,0.00,CLR,FEW,0.00,WeatherDisplay:10.37,2013-09-25 11:05:00,
2013-09-25 07:10:00,47.8,47.8,29.88,North,0,0.0,0.0,100,0.00,CLR,FEW,0.00,WeatherDisplay:10.37,2013-09-25 11:10:00,
2013-09-25 07:20:00,47.5,47.5,29.91,North,0,0.0,0.0,100,0.00,CLR,FEW,0.00,WeatherDisplay:10.37,2013-09-25 11:20:00,
2013-09-25 07:30:00,47.1,47.1,29.91,North,0,0.0,0.0,100,0.00,CLR,FEW,0.00,WeatherDisplay:10.37,2013-09-25 11:30:00,
2013-09-25 07:40:00,47.1,47.1,29.91,North,0,0.0,0.0,100,0.00,CLR,FEW,0.00,WeatherDisplay:10.37,2013-09-25 11:40:00,
2013-09-25 07:50:00,47.3,47.3,29.91,North,0,0.0,0.0,100,0.00,CLR,FEW,0.00,WeatherDisplay:10.37,2013-09-25 11:50:00,
2013-09-25 08:00:00,47.7,47.7,29.91,North,0,0.0,0.0,100,0.00,CLR,FEW,0.00,WeatherDisplay:10.37,2013-09-25 12:00:00,
2013-09-25 08:05:00,48.0,48.0,29.91,North,0,0.0,0.0,100,0.00,CLR,FEW,0.00,WeatherDisplay:10.37,2013-09-25 12:05:00,
2013-09-25 08:10:00,48.2,48.2,29.91,North,0,0.0,0.0,100,0.00,CLR,FEW,0.00,WeatherDisplay:10.37,2013-09-25 12:10:00,
2013-09-25 08:20:00,49.3,49.3,29.91,North,0,0.0,0.0,100,0.00,CLR,FEW,0.00,WeatherDisplay:10.37,2013-09-25 12:20:00,
2013-09-25 08:30:00,49.8,49.8,29.91,North,0,0.0,0.0,100,0.00,CLR,FEW,0.00,WeatherDisplay:10.37,2013-09-25 12:30:00,
2013-09-25 08:35:00,50.7,50.7,29.91,North,0,0.0,0.0,100,0.00,CLR,FEW,0.00,WeatherDisplay:10.37,2013-09-25 12:35:00,
2013-09-25 08:40:00,51.3,51.3,29.91,North,0,0.0,0.0,100,0.00,CLR,FEW,0.00,WeatherDisplay:10.37,2013-09-25 12:40:00,
2013-09-25 08:45:00,51.6,51.6,29.91,North,0,0.0,0.0,100,0.00,CLR,FEW,0.00,WeatherDisplay:10.37,2013-09-25 12:45:00,
2013-09-25 08:50:00,52.2,52.2,29.91,North,0,0.0,0.0,100,0.00,CLR,FEW,0.00,WeatherDisplay:10.37,2013-09-25 12:50:00,
2013-09-25 09:00:00,53.1,53.1,29.91,North,0,0.0,0.0,100,0.00,CLR,FEW,0.00,WeatherDisplay:10.37,2013-09-25 13:00:00,
2013-09-25 09:05:00,53.8,53.8,29.91,North,0,0.0,0.0,100,0.00,CLR,FEW,0.00,WeatherDisplay:10.37,2013-09-25 13:05:00,
2013-09-25 09:10:00,54.0,54.0,29.91,North,0,0.0,0.0,100,0.00,CLR,FEW,0.00,WeatherDisplay:10.37,2013-09-25 13:10:00,
2013-09-25 09:20:00,54.3,54.3,29.91,North,0,0.0,0.0,100,0.00,CLR,FEW,0.00,WeatherDisplay:10.37,2013-09-25 13:20:00,
2013-09-25 09:30:00,54.7,54.7,29.91,North,0,0.0,0.0,100,0.00,CLR,FEW,0.00,WeatherDisplay:10.37,2013-09-25 13:30:00,
2013-09-25 09:40:00,54.9,54.9,29.91,North,0,0.0,0.0,100,0.00,CLR,FEW,0.00,WeatherDisplay:10.37,2013-09-25 13:40:00,
2013-09-25 09:50:00,55.2,55.2,29.91,North,0,0.0,0.0,100,0.00,CLR,FEW,0.00,WeatherDisplay:10.37,2013-09-25 13:50:00,
2013-09-25 09:55:00,55.4,55.4,29.91,North,0,0.0,0.0,100,0.00,CLR,FEW,0.00,WeatherDisplay:10.37,2013-09-25 13:55:00,
2013-09-25 10:00:00,55.8,55.8,29.91,North,0,0.0,0.0,100,0.00,CLR,FEW,0.00,WeatherDisplay:10.37,2013-09-25 14:00:00,
2013-09-25 10:05:00,56.1,56.1,29.91,North,0,0.0,0.0,100,0.00,CLR,FEW,0.00,WeatherDisplay:10.37,2013-09-25 14:05:00,
2013-09-25 10:10:00,56.3,56.3,29.91,North,0,0.0,0.0,100,0.00,CLR,FEW,0.00,WeatherDisplay:10.37,2013-09-25 14:10:00,
2013-09-25 10:20:00,57.0,57.0,29.91,North,0,0.0,0.0,100,0.00,CLR,FEW,0.00,WeatherDisplay:10.37,2013-09-25 14:20:00,
2013-09-25 10:30:00,57.9,57.9,29.91,North,0,0.0,0.0,100,0.00,CLR,FEW,0.00,WeatherDisplay:10.37,2013-09-25 14:30:00,
2013-09-25 10:40:00,60.6,60.6,29.91,North,0,0.0,0.0,100,0.00,CLR,FEW,0.00,WeatherDisplay:10.37,2013-09-25 14:40:00,
2013-09-25 10:50:00,61.3,60.2,29.91,North,0,0.0,3.0,96,0.00,CLR,FEW,0.00,WeatherDisplay:10.37,2013-09-25 14:50:00,
2013-09-25 11:00:00,64.6,58.3,29.91,East,95,1.0,5.0,80,0.00,CLR,FEW,0.00,WeatherDisplay:10.37,2013-09-25 15:00:00,
2013-09-25 11:05:00,64.8,57.0,29.91,ESE,120,1.0,1.0,76,0.00,CLR,FEW,0.00,WeatherDisplay:10.37,2013-09-25 15:05:00,
2013-09-25 11:10:00,64.8,57.0,29.91,ESE,120,2.0,3.0,76,0.00,CLR,FEW,0.00,WeatherDisplay:10.37,2013-09-25 15:10:00,
2013-09-25 11:20:00,64.8,55.1,29.91,ESE,120,2.0,5.0,71,0.00,CLR,FEW,0.00,WeatherDisplay:10.37,2013-09-25 15:20:00,
2013-09-25 11:30:00,65.8,56.2,29.91,ENE,62,5.0,6.0,71,0.00,CLR,FEW,0.00,WeatherDisplay:10.37,2013-09-25 15:30:00,
2013-09-25 11:40:00,67.6,56.7,29.91,NE,44,3.0,3.0,68,0.00,CLR,FEW,0.00,WeatherDisplay:10.37,2013-09-25 15:40:00,
2013-09-25 11:50:00,67.5,55.7,29.91,NE,34,2.0,6.0,66,0.00,CLR,FEW,0.00,WeatherDisplay:10.37,2013-09-25 15:50:00,
2013-09-25 12:00:00,68.2,56.0,29.91,NE,55,3.0,6.0,65,0.00,CLR,FEW,0.00,WeatherDisplay:10.37,2013-09-25 16:00:00,
2013-09-25 12:05:00,69.6,57.3,29.91,NE,53,5.0,6.0,65,0.00,CLR,FEW,0.00,WeatherDisplay:10.37,2013-09-25 16:05:00,
2013-09-25 12:10:00,69.6,57.8,29.91,NE,52,3.0,0.0,66,0.00,CLR,FEW,0.00,WeatherDisplay:10.37,2013-09-25 16:10:00,
2013-09-25 12:20:00,71.6,57.4,29.91,NE,50,2.0,3.0,61,0.00,CLR,FEW,0.00,WeatherDisplay:10.37,2013-09-25 16:20:00,
2013-09-25 12:30:00,72.3,55.7,29.91,NE,45,2.0,6.0,56,0.00,CLR,FEW,0.00,WeatherDisplay:10.37,2013-09-25 16:30:00,
2013-09-25 12:40:00,71.6,56.5,29.91,ENE,67,5.0,11.0,59,0.00,CLR,FEW,0.00,WeatherDisplay:10.37,2013-09-25 16:40:00,
2013-09-25 12:50:00,70.7,53.7,29.91,NE,52,7.0,10.0,55,0.00,CLR,FEW,0.00,WeatherDisplay:10.37,2013-09-25 16:50:00,
2013-09-25 13:00:00,70.5,55.0,29.91,ENE,75,7.0,11.0,58,0.00,CLR,FEW,0.00,WeatherDisplay:10.37,2013-09-25 17:00:00,
2013-09-25 13:05:00,71.4,56.8,29.91,NE,56,8.0,11.0,60,0.00,CLR,FEW,0.00,WeatherDisplay:10.37,2013-09-25 17:05:00,
2013-09-25 13:10:00,70.9,55.4,29.91,NE,51,8.0,8.0,58,0.00,CLR,FEW,0.00,WeatherDisplay:10.37,2013-09-25 17:10:00,
2013-09-25 13:20:00,71.1,55.1,29.91,NE,52,7.0,7.0,57,0.00,CLR,FEW,0.00,WeatherDisplay:10.37,2013-09-25 17:20:00,
2013-09-25 13:30:00,71.2,56.2,29.91,ENE,69,8.0,10.0,59,0.00,CLR,FEW,0.00,WeatherDisplay:10.37,2013-09-25 17:30:00,
2013-09-25 13:40:00,71.2,55.7,29.88,East,86,8.0,9.0,58,0.00,CLR,FEW,0.00,WeatherDisplay:10.37,2013-09-25 17:40:00,
2013-09-25 13:50:00,71.6,55.6,29.88,NE,48,7.0,7.0,57,0.00,CLR,FEW,0.00,WeatherDisplay:10.37,2013-09-25 17:50:00,
2013-09-25 14:00:00,72.0,54.4,29.88,ESE,103,6.0,12.0,54,0.00,CLR,FEW,0.00,WeatherDisplay:10.37,2013-09-25 18:00:00,
2013-09-25 14:05:00,72.0,54.9,29.88,ENE,72,7.0,12.0,55,0.00,CLR,FEW,0.00,WeatherDisplay:10.37,2013-09-25 18:05:00,
2013-09-25 14:10:00,72.0,53.9,29.88,ENE,64,8.0,9.0,53,0.00,CLR,FEW,0.00,WeatherDisplay:10.37,2013-09-25 18:10:00,
2013-09-25 14:20:00,72.0,53.4,29.88,ENE,66,7.0,7.0,52,0.00,CLR,FEW,0.00,WeatherDisplay:10.37,2013-09-25 18:20:00,
2013-09-25 14:30:00,72.5,53.9,29.88,East,83,3.0,6.0,52,0.00,CLR,FEW,0.00,WeatherDisplay:10.37,2013-09-25 18:30:00,
2013-09-25 14:40:00,72.5,53.3,29.88,ENE,74,5.0,6.0,51,0.00,CLR,FEW,0.00,WeatherDisplay:10.37,2013-09-25 18:40:00,
2013-09-25 14:50:00,72.7,54.6,29.88,NE,47,7.0,8.0,53,0.00,CLR,FEW,0.00,WeatherDisplay:10.37,2013-09-25 18:50:00,
2013-09-25 15:00:00,72.7,53.5,29.88,ENE,62,7.0,12.0,51,0.00,CLR,FEW,0.00,WeatherDisplay:10.37,2013-09-25 19:00:00,
2013-09-25 15:05:00,72.5,52.8,29.85,ENE,73,8.0,12.0,50,0.00,CLR,FEW,0.00,WeatherDisplay:10.37,2013-09-25 19:05:00,
2013-09-25 15:10:00,72.5,53.3,29.85,NE,36,7.0,7.0,51,0.00,CLR,FEW,0.00,WeatherDisplay:10.37,2013-09-25 19:10:00,
2013-09-25 15:20:00,73.0,53.8,29.85,ENE,59,8.0,9.0,51,0.00,CLR,FEW,0.00,WeatherDisplay:10.37,2013-09-25 19:20:00,
2013-09-25 15:30:00,72.3,54.7,29.85,ENE,70,8.0,10.0,54,0.00,CLR,FEW,0.00,WeatherDisplay:10.37,2013-09-25 19:30:00,
2013-09-25 15:40:00,71.2,52.7,29.85,ENE,67,7.0,7.0,52,0.00,CLR,FEW,0.00,WeatherDisplay:10.37,2013-09-25 19:40:00,
2013-09-25 15:50:00,70.3,53.9,29.85,NNE,26,3.0,5.0,56,0.00,CLR,FEW,0.00,WeatherDisplay:10.37,2013-09-25 19:50:00,
2013-09-25 16:00:00,70.7,52.7,29.85,ENE,64,3.0,7.0,53,0.00,CLR,FEW,0.00,WeatherDisplay:10.37,2013-09-25 20:00:00,
2013-09-25 16:05:00,70.9,52.4,29.85,NE,55,5.0,7.0,52,0.00,CLR,FEW,0.00,WeatherDisplay:10.37,2013-09-25 20:05:00,
2013-09-25 16:10:00,70.9,53.9,29.85,NE,49,5.0,6.0,55,0.00,CLR,FEW,0.00,WeatherDisplay:10.37,2013-09-25 20:10:00,
2013-09-25 16:20:00,71.4,54.4,29.85,ENE,64,5.0,6.0,55,0.00,CLR,FEW,0.00,WeatherDisplay:10.37,2013-09-25 20:20:00,
2013-09-25 16:30:00,72.3,55.2,29.85,NE,43,5.0,7.0,55,0.00,CLR,FEW,0.00,WeatherDisplay:10.37,2013-09-25 20:30:00,
2013-09-25 16:40:00,71.6,52.5,29.85,NE,44,6.0,9.0,51,0.00,CLR,FEW,0.00,WeatherDisplay:10.37,2013-09-25 20:40:00,
2013-09-25 16:50:00,70.7,53.2,29.85,NE,44,7.0,7.0,54,0.00,CLR,FEW,0.00,WeatherDisplay:10.37,2013-09-25 20:50:00,
2013-09-25 17:00:00,70.3,53.4,29.85,NE,50,6.0,6.0,55,0.00,CLR,FEW,0.00,WeatherDisplay:10.37,2013-09-25 21:00:00,
2013-09-25 17:05:00,69.6,55.1,29.85,NE,51,5.0,5.0,60,0.00,CLR,FEW,0.00,WeatherDisplay:10.37,2013-09-25 21:05:00,
2013-09-25 17:10:00,69.6,55.1,29.85,NNE,25,5.0,5.0,60,0.00,CLR,FEW,0.00,WeatherDisplay:10.37,2013-09-25 21:10:00,
2013-09-25 17:20:00,68.5,58.0,29.85,NNW,345,3.0,5.0,69,0.00,CLR,FEW,0.00,WeatherDisplay:10.37,2013-09-25 21:20:00,
2013-09-25 17:30:00,68.0,58.2,29.85,North,3,3.0,7.0,71,0.00,CLR,FEW,0.00,WeatherDisplay:10.37,2013-09-25 21:30:00,
2013-09-25 17:40:00,67.6,59.1,29.85,NNW,330,5.0,5.0,74,0.00,CLR,FEW,0.00,WeatherDisplay:10.37,2013-09-25 21:40:00,
2013-09-25 17:50:00,67.1,59.3,29.85,NNW,334,2.0,2.0,76,0.00,CLR,FEW,0.00,WeatherDisplay:10.37,2013-09-25 21:50:00,
2013-09-25 18:00:00,66.9,59.5,29.85,North,349,0.0,1.0,77,0.00,CLR,FEW,0.00,WeatherDisplay:10.37,2013-09-25 22:00:00,
2013-09-25 18:05:00,66.7,59.7,29.85,NE,37,0.0,1.0,78,0.00,CLR,FEW,0.00,WeatherDisplay:10.37,2013-09-25 22:05:00,
2013-09-25 18:10:00,66.7,59.7,29.85,NE,39,0.0,0.0,78,0.00,CLR,FEW,0.00,WeatherDisplay:10.37,2013-09-25 22:10:00,
2013-09-25 18:20:00,66.2,59.1,29.85,NE,40,0.0,0.0,78,0.00,CLR,FEW,0.00,WeatherDisplay:10.37,2013-09-25 22:20:00,
2013-09-25 18:30:00,65.8,59.1,29.85,NE,40,0.0,0.0,79,0.00,CLR,FEW,0.00,WeatherDisplay:10.37,2013-09-25 22:30:00,
2013-09-25 18:40:00,65.8,59.5,29.88,NNE,17,0.0,0.0,80,0.00,CLR,FEW,0.00,WeatherDisplay:10.37,2013-09-25 22:40:00,
2013-09-25 18:50:00,65.3,59.3,29.88,NNW,340,0.0,0.0,81,0.00,CLR,FEW,0.00,WeatherDisplay:10.37,2013-09-25 22:50:00,
2013-09-25 19:00:00,64.8,58.8,29.88,NNW,340,0.0,0.0,81,0.00,CLR,FEW,0.00,WeatherDisplay:10.37,2013-09-25 23:00:00,
2013-09-25 19:05:00,64.4,58.4,29.88,NNW,340,0.0,0.0,81,0.00,CLR,FEW,0.00,WeatherDisplay:10.37,2013-09-25 23:05:00,
2013-09-25 19:10:00,64.2,59.3,29.88,NNW,340,0.0,0.0,84,0.00,CLR,FEW,0.00,WeatherDisplay:10.37,2013-09-25 23:10:00,
2013-09-25 19:20:00,63.9,59.6,29.88,NW,321,0.0,0.0,86,0.00,CLR,FEW,0.00,WeatherDisplay:10.37,2013-09-25 23:20:00,
2013-09-25 19:30:00,63.5,59.2,29.88,NW,316,0.0,0.0,86,0.00,CLR,FEW,0.00,WeatherDisplay:10.37,2013-09-25 23:30:00,
2013-09-25 19:40:00,63.0,59.0,29.88,NW,315,0.0,0.0,87,0.00,CLR,FEW,0.00,WeatherDisplay:10.37,2013-09-25 23:40:00,
2013-09-25 19:50:00,62.2,59.0,29.88,NW,315,0.0,0.0,89,0.00,CLR,FEW,0.00,WeatherDisplay:10.37,2013-09-25 23:50:00,
2013-09-25 20:00:00,61.9,58.6,29.88,NW,315,0.0,0.0,89,0.00,CLR,FEW,0.00,WeatherDisplay:10.37,2013-09-26 00:00:00,
2013-09-25 20:05:00,61.3,58.1,29.88,NW,315,0.0,0.0,89,0.00,CLR,FEW,0.00,WeatherDisplay:10.37,2013-09-26 00:05:00,
2013-09-25 20:10:00,61.2,57.9,29.88,NW,315,0.0,0.0,89,0.00,CLR,FEW,0.00,WeatherDisplay:10.37,2013-09-26 00:10:00,
2013-09-25 20:20:00,60.6,58.0,29.88,NW,315,0.0,0.0,91,0.00,CLR,FEW,0.00,WeatherDisplay:10.37,2013-09-26 00:20:00,
2013-09-25 20:25:00,60.6,58.0,29.88,NW,315,0.0,0.0,91,0.00,CLR,FEW,0.00,WeatherDisplay:10.37,2013-09-26 00:25:00,
2013-09-25 20:30:00,60.4,57.8,29.88,NW,315,0.0,0.0,91,0.00,CLR,FEW,0.00,WeatherDisplay:10.37,2013-09-26 00:30:00,
2013-09-25 20:40:00,60.1,57.7,29.88,NW,315,0.0,0.0,92,0.00,CLR,FEW,0.00,WeatherDisplay:10.37,2013-09-26 00:40:00,
2013-09-25 20:50:00,59.7,57.7,29.88,NW,315,0.0,0.0,93,0.00,CLR,FEW,0.00,WeatherDisplay:10.37,2013-09-26 00:50:00,
2013-09-25 21:00:00,59.4,57.3,29.88,NW,315,0.0,0.0,93,0.00,CLR,FEW,0.00,WeatherDisplay:10.37,2013-09-26 01:00:00,
2013-09-25 21:05:00,59.0,57.0,29.88,NW,315,0.0,0.0,93,0.00,CLR,FEW,0.00,WeatherDisplay:10.37,2013-09-26 01:05:00,
2013-09-25 21:10:00,58.8,57.1,29.88,NW,315,0.0,0.0,94,0.00,CLR,FEW,0.00,WeatherDisplay:10.37,2013-09-26 01:10:00,
2013-09-25 21:20:00,58.5,56.7,29.88,NW,315,0.0,0.0,94,0.00,CLR,FEW,0.00,WeatherDisplay:10.37,2013-09-26 01:20:00,
2013-09-25 21:30:00,58.5,56.7,29.88,NW,315,0.0,0.0,94,0.00,CLR,FEW,0.00,WeatherDisplay:10.37,2013-09-26 01:30:00,
2013-09-25 21:40:00,58.1,56.4,29.88,NW,315,0.0,0.0,94,0.00,CLR,FEW,0.00,WeatherDisplay:10.37,2013-09-26 01:40:00,
2013-09-25 21:50:00,57.7,56.0,29.88,NW,315,0.0,0.0,94,0.00,CLR,FEW,0.00,WeatherDisplay:10.37,2013-09-26 01:50:00,
2013-09-25 21:55:00,57.4,55.7,29.88,NW,315,0.0,0.0,94,0.00,CLR,FEW,0.00,WeatherDisplay:10.37,2013-09-26 01:55:00,
2013-09-25 22:00:00,57.4,55.7,29.88,NW,315,0.0,0.0,94,0.00,CLR,FEW,0.00,WeatherDisplay:10.37,2013-09-26 02:00:00,
2013-09-25 22:05:00,57.2,55.5,29.88,NW,315,0.0,0.0,94,0.00,CLR,FEW,0.00,WeatherDisplay:10.37,2013-09-26 02:05:00,
2013-09-25 22:10:00,57.0,55.6,29.88,NW,315,0.0,0.0,95,0.00,CLR,FEW,0.00,WeatherDisplay:10.37,2013-09-26 02:10:00,
2013-09-25 22:20:00,56.8,55.4,29.88,NW,315,0.0,0.0,95,0.00,CLR,FEW,0.00,WeatherDisplay:10.37,2013-09-26 02:20:00,
2013-09-25 22:30:00,56.8,55.4,29.88,NW,315,0.0,0.0,95,0.00,CLR,FEW,0.00,WeatherDisplay:10.37,2013-09-26 02:30:00,
2013-09-25 22:40:00,56.7,55.5,29.88,NW,315,0.0,0.0,96,0.00,CLR,FEW,0.00,WeatherDisplay:10.37,2013-09-26 02:40:00,
2013-09-25 22:50:00,56.7,55.5,29.88,NW,315,0.0,0.0,96,0.00,CLR,FEW,0.00,WeatherDisplay:10.37,2013-09-26 02:50:00,
2013-09-25 23:00:00,56.7,55.5,29.88,NW,315,0.0,0.0,96,0.00,CLR,FEW,0.00,WeatherDisplay:10.37,2013-09-26 03:00:00,
2013-09-25 23:05:00,56.7,55.5,29.88,NW,315,0.0,0.0,96,0.00,CLR,FEW,0.00,WeatherDisplay:10.37,2013-09-26 03:05:00,
2013-09-25 23:10:00,56.7,55.5,29.88,NW,315,0.0,0.0,96,0.00,CLR,FEW,0.00,WeatherDisplay:10.37,2013-09-26 03:10:00,
2013-09-25 23:20:00,56.7,55.5,29.88,NW,315,0.0,0.0,96,0.00,CLR,FEW,0.00,WeatherDisplay:10.37,2013-09-26 03:20:00,
2013-09-25 23:30:00,56.7,55.5,29.88,NW,315,0.0,0.0,96,0.00,CLR,FEW,0.00,WeatherDisplay:10.37,2013-09-26 03:30:00,
2013-09-25 23:40:00,56.7,55.5,29.88,NW,315,0.0,0.0,96,0.00,CLR,FEW,0.00,WeatherDisplay:10.37,2013-09-26 03:40:00,
2013-09-25 23:50:00,55.6,53.6,29.91,NW,315,0.0,0.0,93,0.00,CLR,FEW,0.00,WeatherDisplay:10.37,2013-09-26 03:50:00,